Weather History for EKKA - September, 2013

Change the Weather History Date:

Monday, September 23, 2013

  Actual Average Record
Temperature  
Mean Temperature 58 °F -  
Max Temperature 63 °F 56 °F 73 °F (2006)
Min Temperature 53 °F 43 °F 36 °F (2012)
Degree Days  
Heating Degree Days 7    
Growing Degree Days 8 (Base 50)    
Moisture  
Dew Point 54 °F    
Average Humidity 86    
Maximum Humidity 94    
Minimum Humidity 72    
Precipitation  
Precipitation 0.00 in - - ()
Sea Level Pressure  
Sea Level Pressure 30.05 in    
Wind  
Wind Speed 14 mph ()    
Max Wind Speed 23 mph    
Max Gust Speed 34 mph    
Visibility 7.3 miles    
Events      
Averages and records for this station are not official NWS values.
T = Trace of Precipitation, MM = Missing Value Source: Averaged Metar Reports

Daily Weather History Graph

Daily Weather History Graph

Search for Another Location

Airport or City:

Trip Planner

Search our weather history database for the weather conditions in past years. The results will help you decide how hot, cold, wet, or windy it might be!

Date:

Astronomy

Sep. 23, 2013 Rise Set
Actual Time 7:10 AM CEST 7:19 PM CEST
Civil Twilight 6:33 AM CEST 7:57 PM CEST
Nautical Twilight 5:48 AM CEST 8:41 PM CEST
Astronomical Twilight 5:01 AM CEST 9:28 PM CEST
Moon 8:47 PM CEST (9/23) 12:04 PM CEST (9/23)
Length of Visible Light 13h 23m
Length of Day
12h 09m
Waning Gibbous, 83% of the Moon is Illuminated
Sep 23
Waning Gibbous
Sep 27
Last Quarter
Oct 5
New
Oct 12
First Quarter
Oct 19
Full

Hourly Weather History & Observations

Time (CEST) Temp. Dew Point Humidity Pressure Visibility Wind Dir Wind Speed Gust Speed Precip Events Conditions
12:20 AM 59.0 °F 55.4 °F 88% 30.06 in 6.2 mi WNW 17.3 mph - N/A   Mostly Cloudy
12:50 AM 59.0 °F 55.4 °F 88% 30.06 in 6.2 mi WNW 17.3 mph - N/A   Mostly Cloudy
1:20 AM 57.2 °F 55.4 °F 94% 30.06 in 6.2 mi WNW 16.1 mph - N/A   Mostly Cloudy
1:50 AM 57.2 °F 53.6 °F 88% 30.06 in 6.2 mi WNW 15.0 mph - N/A   Scattered Clouds
2:00 AM 57 °F 54 °F 88% 30.08 in 16 mi WNW 15.0 mph - -   Partly Cloudy
2:20 AM 57.2 °F 53.6 °F 88% 30.06 in 6.2 mi WNW 15.0 mph - N/A   Scattered Clouds
2:50 AM 57.2 °F 53.6 °F 88% 30.06 in 6.2 mi WNW 15.0 mph - N/A   Scattered Clouds
3:20 AM 57.2 °F 53.6 °F 88% 30.06 in 6.2 mi WNW 17.3 mph - N/A   Mostly Cloudy
3:50 AM 57.2 °F 53.6 °F 88% 30.06 in 6.2 mi WNW 17.3 mph - N/A   Mostly Cloudy
4:20 AM 57.2 °F 53.6 °F 88% 30.06 in 6.2 mi WNW 12.7 mph - N/A   Scattered Clouds
4:50 AM 57.2 °F 53.6 °F 88% 30.06 in 6.2 mi WNW 12.7 mph - N/A   Scattered Clouds
5:00 AM 57 °F 53 °F 82% 30.08 in 16 mi WNW 15.0 mph - -   Partly Cloudy
5:20 AM 57.2 °F 53.6 °F 88% 30.06 in 6.2 mi WNW 12.7 mph - N/A   Mostly Cloudy
5:50 AM 57.2 °F 53.6 °F 88% 30.06 in 6.2 mi WNW 12.7 mph - N/A   Mostly Cloudy
6:20 AM 57.2 °F 53.6 °F 88% 30.06 in 6.2 mi WNW 12.7 mph - N/A   Mostly Cloudy
6:50 AM 57.2 °F 53.6 °F 88% 30.06 in 6.2 mi WNW 11.5 mph - N/A   Mostly Cloudy
7:02 AM 57.2 °F 53.6 °F 88% 30.06 in 6.2 mi WNW 12.7 mph - N/A   Mostly Cloudy
7:20 AM 57.2 °F 55.4 °F 94% 30.06 in 6.2 mi WNW 13.8 mph - N/A   Mostly Cloudy
7:50 AM 57.2 °F 55.4 °F 94% 30.06 in 6.2 mi WNW 18.4 mph - N/A   Mostly Cloudy
8:00 AM 58 °F 56 °F 90% 30.07 in 16 mi WNW 16.1 mph - -   Mostly Cloudy
8:20 AM 59.0 °F 55.4 °F 88% 30.06 in 6.2 mi WNW 13.8 mph - N/A   Mostly Cloudy
8:50 AM 59.0 °F 55.4 °F 88% 30.06 in 6.2 mi WNW 16.1 mph - N/A   Mostly Cloudy
9:20 AM 59.0 °F 57.2 °F 94% 30.06 in 6.2 mi WNW 20.7 mph 32.2 mph N/A   Mostly Cloudy
9:50 AM 60.8 °F 57.2 °F 88% 30.06 in 6.2 mi WNW 17.3 mph - N/A   Mostly Cloudy
10:20 AM 60.8 °F 57.2 °F 88% 30.06 in 6.2 mi NW 23.0 mph 34.5 mph N/A   Light Drizzle
10:36 AM 59.0 °F 57.2 °F 94% 30.06 in 4.3 mi NW 18.4 mph - N/A   Light Drizzle
10:50 AM 60.8 °F 57.2 °F 88% 30.06 in 6.2 mi WNW 16.1 mph 27.6 mph N/A   Light Drizzle
11:00 AM 61 °F 58 °F 86% 30.08 in 9 mi WNW 17.3 mph - -   Partly Cloudy
11:20 AM 60.8 °F 57.2 °F 88% 30.06 in 6.2 mi NW 20.7 mph - N/A   Mostly Cloudy
11:50 AM 62.6 °F 57.2 °F 82% 30.06 in 6.2 mi WNW 19.6 mph 32.2 mph N/A   Mostly Cloudy
12:20 PM 62.6 °F 57.2 °F 82% 30.06 in 6.2 mi WNW 19.6 mph 31.1 mph N/A   Mostly Cloudy
12:50 PM 62.6 °F 57.2 °F 82% 30.06 in 6.2 mi WNW 19.6 mph - N/A   Mostly Cloudy
1:20 PM 62.6 °F 57.2 °F 82% 30.06 in 6.2 mi WNW 20.7 mph - N/A   Mostly Cloudy
1:50 PM 62.6 °F 57.2 °F 82% 30.06 in 6.2 mi NW 21.9 mph - N/A   Mostly Cloudy
2:00 PM 61 °F 56 °F 78% 30.07 in 16 mi NW 20.7 mph - -   Mostly Cloudy
2:20 PM 60.8 °F 55.4 °F 82% 30.06 in 6.2 mi NW 18.4 mph 32.2 mph N/A   Mostly Cloudy
2:50 PM 62.6 °F 55.4 °F 77% 30.04 in 6.2 mi NW 18.4 mph - N/A   Mostly Cloudy
3:20 PM 60.8 °F 55.4 °F 82% 30.04 in 6.2 mi WNW 16.1 mph - N/A   Mostly Cloudy
3:50 PM 62.6 °F 53.6 °F 72% 30.04 in 6.2 mi WNW 16.1 mph 31.1 mph N/A   Mostly Cloudy
4:20 PM 60.8 °F 53.6 °F 77% 30.04 in 6.2 mi NW 18.4 mph - N/A   Scattered Clouds
4:50 PM 59.0 °F 53.6 °F 82% 30.04 in 6.2 mi NW 18.4 mph - N/A   Scattered Clouds
5:00 PM 59 °F 53 °F 74% 30.05 in 16 mi WNW 19.6 mph - -   Partly Cloudy
5:20 PM 59.0 °F 53.6 °F 82% 30.04 in 6.2 mi WNW 15.0 mph - N/A   Scattered Clouds
5:50 PM 59.0 °F 53.6 °F 82% 30.04 in 6.2 mi WNW 16.1 mph - N/A   Scattered Clouds
6:20 PM 57.2 °F 51.8 °F 82% 30.04 in 6.2 mi WNW 17.3 mph - N/A   Scattered Clouds
6:50 PM 57.2 °F 51.8 °F 82% 30.04 in 6.2 mi WNW 12.7 mph - N/A   Scattered Clouds
7:20 PM 57.2 °F 51.8 °F 82% 30.04 in 6.2 mi WNW 10.4 mph - N/A   Mostly Cloudy
7:50 PM 55.4 °F 51.8 °F 88% 30.04 in 6.2 mi WNW 8.1 mph - N/A   Mostly Cloudy
8:00 PM 55 °F 51 °F 84% 30.06 in 16 mi NW 8.1 mph - -   Mostly Cloudy
8:20 PM 55.4 °F 51.8 °F 88% 30.04 in 6.2 mi WNW 6.9 mph - N/A   Mostly Cloudy
8:50 PM 53.6 °F 51.8 °F 94% 30.04 in 6.2 mi West 5.8 mph - N/A   Mostly Cloudy
9:20 PM 55.4 °F 51.8 °F 88% 30.04 in 6.2 mi West 6.9 mph - N/A   Mostly Cloudy
9:50 PM 55.4 °F 51.8 °F 88% 30.04 in 6.2 mi West 6.9 mph - N/A   Mostly Cloudy
10:20 PM 55.4 °F 51.8 °F 88% 30.04 in 6.2 mi West 6.9 mph - N/A   Mostly Cloudy
10:50 PM 55.4 °F 51.8 °F 88% 30.04 in 6.2 mi West 6.9 mph - N/A   Mostly Cloudy
11:00 PM 54 °F 52 °F 89% 30.05 in 9 mi WSW 6.9 mph - -   Partly Cloudy
11:20 PM 53.6 °F 51.8 °F 94% 30.04 in 6.2 mi WSW 6.9 mph - N/A   Mostly Cloudy
11:50 PM 55.4 °F 51.8 °F 88% 30.04 in 6.2 mi West 6.9 mph - N/A   Mostly Cloudy